Lid_Strength_Index
1 2 6 7 11 13 14 13 10 11 10 9 7 7 9 8 10 12 3 1 0 0 -0 -0 -1 -1 -2 -2 -1 -1 -2 -2 -2 -2 -2 -2 -2 -2 -2 -2 -2 -2 -2 -2 -2 -1 -1 -1 -1
3 3 6 10 13 16 15 13 12 10 8 7 7 8 9 10 6 4 3 0 -0 -0 -0 0 -1 -1 -1 -2 -2 -1 -1 -2 -2 -2 -2 -2 -2 -2 -2 -2 -2 -2 -2 -2 -1 -1 -0 -1 -1
3 5 8 11 15 15 14 11 10 9 7 9 8 6 8 9 6 4 2 0 -0 0 -0 -0 -1 -1 -1 -1 -2 -2 -2 -1 -2 -2 -2 -2 -2 -2 -2 -1 -1 -1 -1 -1 -1 -1 -0 -0 -1
6 6 8 12 14 14 11 11 10 9 9 8 7 10 6 4 4 2 0 -0 0 0 -0 -0 -1 -1 -1 -1 -1 -2 -2 -2 -2 -2 -2 -2 -2 -2 -2 -2 -1 -1 -1 -1 -1 -1 -1 -1 -1
6 8 11 13 13 14 12 10 9 9 9 8 7 10 9 4 2 1 1 0 1 0 0 -0 -1 -1 -1 -1 -1 -1 -2 -2 -2 -2 -2 -2 -2 -2 -2 -2 -2 -1 -1 -1 -1 -1 -1 -1 -1
8 9 13 15 14 13 10 9 9 9 8 8 8 9 9 4 2 1 1 1 0 0 0 -0 0 -0 -1 -1 -1 -1 -1 -2 -2 -2 -2 -2 -2 -2 -2 -1 -1 -1 -1 -1 -1 -1 -1 -1 -1
9 11 13 13 14 12 10 9 9 9 9 8 6 10 8 6 3 1 1 1 1 1 0 0 0 0 1 -0 -0 -1 -1 -1 -1 -2 -2 -2 -2 -2 -2 -2 -2 -1 -1 -1 -1 -1 -1 -0 -0
9 10 12 11 14 13 12 10 9 8 9 6 6 9 9 5 2 2 2 2 2 1 1 1 1 1 1 1 1 0 -0 -1 -1 -1 -1 -0 -1 -1 -1 -1 -1 -1 -1 -1 -1 -1 -1 -1 -0
8 11 13 11 11 11 11 12 10 9 8 7 7 6 5 3 2 2 2 2 2 1 1 1 1 1 1 1 1 2 1 1 1 1 1 1 0 0 0 0 -1 -2 -2 -2 -1 -1 -1 -1 -0
10 11 11 9 10 10 11 11 10 9 10 8 7 6 4 3 3 3 4 3 3 2 1 1 1 1 1 -0 1 1 1 1 1 1 1 1 1 1 0 1 0 -1 -1 -2 -2 -2 -1 -0 2
10 11 10 10 8 9 10 11 10 11 11 9 8 6 5 5 4 4 3 3 3 2 1 1 2 1 1 0 1 1 1 2 2 2 2 1 1 2 2 2 2 2 2 1 0 1 1 2 2
12 10 9 9 10 9 10 9 10 10 10 8 8 5 4 5 4 4 4 3 2 2 2 1 2 2 2 1 1 1 1 2 3 2 3 3 3 3 3 3 3 3 2 2 2 3 3 3 2
12 11 10 10 10 11 10 10 10 9 8 8 7 5 5 5 4 3 3 3 3 3 2 2 2 2 2 2 2 2 1 1 1 2 2 2 3 3 4 3 3 3 3 3 3 3 3 4 3
11 12 12 11 11 11 10 11 10 10 9 8 6 5 5 5 4 4 4 4 3 3 2 2 2 2 2 2 2 1 1 1 2 2 2 2 2 2 2 3 3 3 3 3 3 3 3 4 4
11 13 13 12 11 11 10 12 11 9 9 9 7 6 5 5 4 4 3 3 2 2 2 2 2 2 2 3 2 2 1 1 1 1 1 1 1 2 2 2 2 2 3 3 3 3 4 4 4
13 15 17 14 13 11 11 15 11 11 11 10 10 9 6 5 4 3 3 3 2 2 2 2 1 2 2 2 2 2 2 2 2 2 2 1 1 1 1 1 2 2 2 3 3 4 4 5 5
16 19 18 15 13 14 13 14 12 11 12 12 11 11 10 9 7 4 3 3 3 3 2 2 1 2 2 2 2 2 2 2 2 3 3 3 3 2 2 2 1 2 3 4 4 4 5 5 6
17 18 17 17 15 15 15 14 12 11 11 11 11 11 11 11 10 8 4 2 2 2 2 2 2 1 2 2 2 2 2 2 2 2 2 3 3 3 3 3 2 3 3 3 4 4 5 5 5
15 16 17 16 15 16 16 16 14 13 12 11 11 11 11 11 10 10 9 6 3 2 2 2 2 2 2 2 3 2 2 2 2 2 2 2 2 3 3 3 3 4 3 3 4 4 5 5 6
15 16 17 14 14 15 16 16 14 14 14 13 12 12 11 11 11 11 10 10 8 4 3 2 2 1 1 1 1 2 2 2 1 1 1 1 2 2 2 2 2 3 3 3 4 4 5 5 5
16 16 17 16 14 15 17 18 17 14 15 14 13 12 11 12 12 12 11 11 10 9 5 3 2 2 1 1 2 3 3 4 4 3 2 2 1 1 2 2 2 2 2 2 2 3 3 4 4
16 14 14 14 16 20 17 23 18 16 14 14 12 12 13 14 13 12 13 12 12 11 10 5 4 3 2 1 2 2 2 3 2 2 2 2 2 2 2 2 2 2 2 2 2 3 3 2 3
15 12 13 14 17 18 19 20 19 17 16 14 14 13 14 13 13 12 11 11 11 11 11 10 9 5 3 2 2 2 2 2 2 3 3 3 2 2 2 2 2 2 2 2 2 2 2 2 3
11 12 13 14 16 23 19 19 21 18 16 15 14 13 13 13 13 12 12 11 11 11 11 10 9 8 7 4 2 2 3 2 3 3 3 2 2 2 2 2 2 2 2 2 2 2 2 2 2
12 14 20 20 20 23 19 19 19 16 15 15 13 12 13 13 13 13 13 12 12 11 10 9 9 9 8 8 7 5 3 3 3 3 2 2 2 2 2 2 2 2 2 2 2 2 3 2 3
12 12 17 21 21 22 18 20 18 15 14 13 13 12 11 12 12 12 12 13 12 12 11 10 10 9 8 8 8 8 7 7 5 3 2 1 1 2 1 1 1 2 2 2 2 2 2 2 2
13 15 12 16 23 21 19 17 15 14 13 12 12 11 12 11 11 11 11 12 11 11 10 10 10 10 9 8 7 7 7 7 7 7 6 5 3 2 1 1 1 1 2 2 1 2 1 2 2
11 10 16 16 23 25 19 19 18 16 14 13 13 12 12 11 10 10 10 10 11 10 10 9 9 10 9 9 9 8 7 7 7 7 7 6 5 4 3 2 1 1 1 1 1 1 1 1 1
13 14 14 14 15 20 22 20 16 14 13 13 13 12 12 11 11 10 9 10 10 10 10 10 10 9 10 9 9 9 8 8 8 7 7 6 6 5 5 4 3 2 1 1 1 1 1 2 2
11 13 13 17 18 16 16 17 12 12 12 12 13 12 12 11 11 11 10 10 10 10 10 11 10 10 10 9 9 9 9 9 9 9 9 8 8 6 6 5 5 4 3 2 1 2 2 2 2